Regional Weather Roundup
Issued by NWS

Home | Current Version | Previous Version | Graphics & Text | Print | Product List | Glossary On
Versions: 1 2 3 4 5 6 7 8 9 10 11 12 13 14 15 16 17 18 19 20 21 22 23 24 25 26 27 28 29 30 31 32 33 34 35 36 37 38 39 40 41 42 43 44 45 46 47 48 49 50
000
ASUS43 KMKX 080221
RWRWI

WISCONSIN REGIONAL WEATHER ROUNDUP
NATIONAL WEATHER SERVICE MILWAUKEE/SULLIVAN WI
900 PM CDT TUE JUL 07 2015

NOTE: "FAIR" INDICATES FEW OR NO CLOUDS BELOW 12,000 FEET WITH NO
SIGNIFICANT WEATHER AND/OR OBSTRUCTIONS TO VISIBILITY.

WIZ001-002-006>008-014>016-023>028-080300-
NORTHWEST WISCONSIN

CITY           SKY/WX    TMP DP  RH WIND       PRES   REMARKS
SUPERIOR ARPT  CLEAR     62  51  68 SW5       30.08R
ASHLAND        CLEAR     57  54  89 SE3       30.10S
HAYWARD        CLEAR     60  52  74 CALM      30.11F
SIREN          CLEAR     60  50  69 CALM      30.11S
CUMBERLAND     CLEAR     59  52  77 CALM      30.12S
RICE LAKE      CLEAR     60  52  75 CALM      30.13S
CHETEK         NOT AVBL
LADYSMITH      CLEAR     58  49  72 CALM      30.13S
EAU CLAIRE     CLEAR     61  51  70 N3        30.09S
MENOMONIE      NOT AVBL
NEW RICHMOND   PTCLDY    61  53  73 CALM      30.11S
OSCEOLA        PTCLDY    64  49  56 CALM      30.13S
$$

WIZ003>005-009-010-017-018-080300-
NORTH CENTRAL WISCONSIN

CITY           SKY/WX    TMP DP  RH WIND       PRES   REMARKS
MANITOWISH WTR CLEAR     52  50  95 CALM      30.12S
ARBOR VITAE    CLEAR     57  49  76 CALM      30.12S
WOODRUFF       CLEAR     57  49  76 CALM      30.12S
RHINELANDER    CLEAR     56  46  69 N3        30.12S
EAGLE RIVER    CLEAR     54  45  71 CALM      30.12R
LAND O LAKES   CLEAR     51  47  86 CALM      30.13S
PHILLIPS       CLEAR     52  48  86 CALM      30.12S
TOMAHAWK       CLEAR     53  49  88 CALM      30.13R
MEDFORD        CLEAR     57  48  72 N5        30.12R
MERRILL        CLEAR     56  50  82 CALM      30.12R
$$

WIZ029-030-035-036-043>047-080300-
CENTRAL WISCONSIN

CITY           SKY/WX    TMP DP  RH WIND       PRES   REMARKS
WAUSAU         CLEAR     63  46  54 N3        30.09R
MOSINEE        CLEAR     63  46  55 CALM      30.11S
MARSHFIELD     CLEAR     63  47  55 CALM      30.10R
STEVENS POINT  CLEAR     59  50  71 CALM      30.10S
WAUPACA        PTCLDY    60  54  79 CALM      30.10R
WAUTOMA        PTCLDY    61  53  74 CALM      30.10R
WISC RAPIDS    CLEAR     59  50  72 CALM      30.10S
CAMP DOUGLAS   PTCLDY    57  57 100 CALM      30.09S
$$

WIZ011>013-019>022-031-037>040-048>050-080300-
NORTHEAST WISCONSIN

CITY           SKY/WX    TMP DP  RH WIND       PRES   REMARKS
ANTIGO         CLEAR     57  51  82 CALM      30.11S
SHAWANO        CLEAR     63  50  62 CALM      30.09S
OCONTO         CLEAR     58  54  85 CALM      30.09R
STURGEON BAY   CLEAR     57  45  62 E3        30.12R
GREEN BAY      CLEAR     60  52  74 CALM      30.09R
MANITOWOC      CLEAR     58  51  78 MISG      30.11R
APPLETON       PTCLDY    64  46  52 VRB5      30.09S
CLINTONVILLE   CLEAR     59  50  72 CALM      30.09S
OSHKOSH        MOCLDY    63  49  60 N7        30.08S
$$

WIZ032>034-041-042-053>061-080300-
SOUTHWEST WISCONSIN

CITY           SKY/WX    TMP DP  RH WIND       PRES   REMARKS
LA CROSSE      CLOUDY    64  52  64 CALM      30.08S
SPARTA         PTCLDY    58  52  78 CALM      30.10S
VIROQUA        CLOUDY    62  55  79 CALM      30.10S
BOSCOBEL       CLOUDY    62  56  80 CALM      30.10S
PRAIRIE DU CHI CLOUDY    63  51  67 CALM      30.10R
PLATTEVILLE    CLEAR     58  53  83 N5        30.10S
$$

WIZ056-057-062-063-064-067-068-080300-
SOUTH CENTRAL WISCONSIN

CITY           SKY/WX    TMP DP  RH WIND       PRES   REMARKS
REEDSBURG      CLOUDY    65  51  61 CALM      30.09R
BARABOO/DELLS  CLOUDY    63  55  74 CALM      30.09S
LONE ROCK      CLOUDY    62  54  74 W6        30.10R
MINERAL POINT  PTCLDY    61  52  72 N3        30.11R
MADISON        MOCLDY    64  52  64 CALM      30.08S
MIDDLETON      CLOUDY    62  55  79 CALM      30.10R
WATERTOWN      CLOUDY    61  53  73 E6        30.09R
MONROE         CLEAR     59  52  77 N5        30.09R
JANESVILLE     PTCLDY    64  48  55 N7        30.08S
$$

WIZ051-052-058>065-066-070>072-080300-
SOUTHEAST WISCONSIN

CITY           SKY/WX    TMP DP  RH WIND       PRES   REMARKS
MILWAUKEE      PTCLDY    57  46  66 N8        30.09F
WAUKESHA       PTCLDY    55  46  71 NE6       30.11S
MILWAUKEE/TIMM CLEAR     57  45  62 N5        30.10F
RACINE         CLEAR     56  47  71 N5        30.10F
BURLINGTON     CLEAR     55  47  76 CALM      30.10R
KENOSHA        CLEAR     56  48  74 N3        30.09S
FOND DU LAC    MOCLDY    60  52  74 SE7       30.10R
SHEBOYGAN      CLEAR     54  51  90 CALM      30.10S
WEST BEND      CLEAR     54  48  82 CALM      30.10S
JUNEAU         CLOUDY    60  51  73 E8        30.11R
$$

LSZ147-162-080300-
LAKE SUPERIOR

STATION/POSITION TIME  TEMP    WIND        PRES    WAVE
                       AIR SEA DIR/SP/G            HT/PER
                 (UTC) (F)     (DEG/KT/KT) (MB)    (FT/S)
W MID LAKE BUOY  0150   47 39  220/  6/  6 1018.9F   1
DEVILS ISLAND    0200   64     180/  8/ 10 1018.7F
PORT WING        0140   67     180/  3/  4 1018.6F
SAXON HARBOR     0100   64        CALM     1019.0S
$$

LMZ867-665-643>646-080300-
LAKE MICHIGAN

STATION/POSITION TIME  TEMP    WIND        PRES    WAVE
                       AIR SEA DIR/SP/G            HT/PER
                 (UTC) (F)     (DEG/KT/KT) (MB)    (FT/S)
CHAMBERS ISLAND  0100   63      40/  9/ 12 1018.3R
N MID LAKE BUOY  0150   56 51  340/  4/  4 1018.5R   1/ 4
NORTHPORT PIER   0100   64      30/  6/ 25 1018.3R
SISTER BAY       0144   60        CALM       N/A
ALGOMA LAKESHORE 0126             CALM       N/A
KEWAUNEE LAKESHO 0100   59        CALM     1018.2R
SHEBOYGAN LAKESH 0200   58     320/  2/  2 1019.6R
PORT WASHINGTON  0100   60      10/  3/  5 1020.0R
ATWATER BUOY     0200   59 59  350/ 10/ 12 1020.1F
MILWAUKEE LAKESH 0200   59     340/  7/  9   N/A
KENOSHA   LAKESH 0200   59      10/ 10/ 13 1018.6S
$$

TC  - TEMPERATURE IN CELSIUS
VSB - VISIBILITY IN STATUTE MILES
WCI - WIND CHILL INDEX
HX  - HEAT INDEX




USA.gov is the U.S. government's official web portal to all federal, state and local government web resources and services.